Regional Weather Roundup
Issued by NWS

Home | Current Version | Previous Version | Graphics & Text | Print | Product List | Glossary On
Versions: 1 2 3 4 5 6 7 8 9 10 11 12 13 14 15 16 17 18 19 20 21 22 23 24 25 26 27 28 29 30 31 32 33 34 35 36 37 38 39 40 41 42 43 44 45 46 47 48 49 50
000
ASUS45 KCYS 252310
RWRWY

WYOMING REGIONAL WEATHER ROUNDUP
NATIONAL WEATHER SERVICE CHEYENNE WY
400 PM MST SAT FEB 25 2017

NOTE:  "FAIR" INDICATES FEW OR NO CLOUDS BELOW 12,000 FEET
WITH NO SIGNIFICANT WEATHER AND/OR OBSTRUCTIONS TO VISIBILITY.

WYZ001-260000-
YELLOWSTONE NATIONAL PARK

CITY           SKY/WX    TMP DP  RH WIND       PRES   REMARKS
LK YELLOWSTONE   N/A     11   1  64 W13G21    29.71S WCI  -4
W YELLOWSTONE  NOT AVBL

$$
WYZ002>013-054>058-071-098>099-260000-
NORTHERN WYOMING

CITY           SKY/WX    TMP DP  RH WIND       PRES   REMARKS
JACKSON        CLOUDY    18   9  68 S13       29.83F WCI   4
CODY           FAIR      28   2  32 W20G32    29.69F WCI  15
GREYBULL       PTSUNNY   32  16  51 S14       29.72F WCI  22
WORLAND        PTSUNNY   31  11  43 SE8       29.72F WCI  23
SHERIDAN       CLOUDY    30  16  56 S13       29.70F WCI  20
BUFFALO        FAIR      25  11  55 SE6       29.67F WCI  18
GILLETTE       FAIR      29  10  45 SW7       29.68F WCI  22
HULETT         MOCLDY    30  19  64 W9        29.69F WCI  22
NEWCASTLE      FAIR      25  14  63 SE7       29.74F WCI  17

$$
WYZ014>020-022>026-101>103-260000-
CENTRAL WYOMING

CITY           SKY/WX    TMP DP  RH WIND       PRES   REMARKS
BIG PINEY      FAIR      10   3  73 N3        29.82F
PINEDALE       FAIR      14   3  62 CALM      29.81F
DUBOIS         FAIR      14   0  52 NW26G36   29.67R WCI  -6
LANDER         FAIR      19   5  54 SW6       29.72F WCI  11
RIVERTON       FAIR      20   2  45 S9        29.73F WCI   9
CASPER         FAIR      20   9  62 SW23G35   29.75S WCI   3
DOUGLAS        FAIR      22   9  57 W22       29.74F WCI   6

$$
WYZ021-027>030-104>119-260000-
SOUTHERN WYOMING

CITY           SKY/WX    TMP DP  RH WIND       PRES   REMARKS
EVANSTON       LGT SNOW  17  10  74 W22       29.87S WCI   0
FORT BRIDGER   FAIR      20  12  68 W21G30    29.88F WCI   5
ROCK SPRINGS   FAIR      20  10  65 W24G35    29.82F WCI   3
DIXON            N/A     23   5  46 W15       29.88F WCI  10
RAWLINS        FAIR      17   7  64 W28G36    29.78S WCI  -2
SARATOGA       FAIR      18   9  68 W17       29.81R WCI   2
LARAMIE        FAIR      16   4  59 W31G37    29.72F WCI  -4
CHEYENNE       FAIR      23   7  50 W28G38    29.75F WCI   6
TORRINGTON     FAIR      27  11  51 W14       29.79F WCI  16
PINE BLUFFS    FAIR      28  10  47 W15G28    29.80F WCI  17

$$



USA.gov is the U.S. government's official web portal to all federal, state and local government web resources and services.